sat.trackr.live / text

‹ back to catalog

STARLINK-5961

NORAD 56914 · 2023-083AQ

PAYLOAD ACTIVE UNKNOWN

§ Identity

Operator
Country
US
Launch date
2023-06-12
Launch site
AFETR
Launch vehicle
Mass (kg)
RCS (m²)

Purposes: comms

External: N2YO · Heavens-Above · Gunter

§ Orbital elements

Epoch: 2026-09-19T18:18:02.936736Z

Period
94.27 min
Inclination
43.0037°
Eccentricity
0.0002115
Mean motion
15.27581040 rev/d
Perigee alt
481.6 km
Apogee alt
484.5 km
Semi-major
6,861.2 km
B*
3.5447e-5
RAAN
54.2630°
Arg perigee
266.2577°
Mean anomaly
93.8033°
Rev number
18,148

§ Raw data

STARLINK-59611 56914U 23083AQ  26262.76253399  .00000713  00000+0  35447-4 0  99902 56914  43.0037  54.2630 0002115 266.2577  93.8033 15.27581040181489

JSON: /api/v1/satellites/56914 · /tle

For live sub-satellite position, see the globe view (requires WebGL).

§ Visibility from observer

Set your observer location to see the next 7 days of passes ≥ 10°. The values pass through the URL so the page stays shareable.

No JS? Fill the form by hand. The geolocation button needs JavaScript.